#timestamp,LO_Frequency,Hit,StdDev 
1609880415.2,286047000.2,N
1609880435.0,286047002.5,P
1609880435.9,286047002.5,N
1609880455.8,286047001.1,N
1609880475.6,286046999.7,N
1609880495.4,286047000.5,N
1609880515.3,286047000.4,N
1609880535.1,286046998.1,N
1609880555.8,286047001.2,N
1609880575.7,286046998.7,N
1609880595.5,286046998.3,N
1609880615.4,286046998.1,N
1609880635.2,286047000.6,N
1609880655.0,286047000.8,N
1609880655.9,286047000.8,N
1609880675.8,286047000.9,N
1609880695.6,286047000.5,N
1609880715.4,286047002.7,N
1609880735.3,286046999.9,N
1609880755.1,286047002.2,N
1609880775.9,286047002.6,N
1609880795.7,286047004.4,Y
1609880815.5,286047000.1,P
1609880835.4,286047000.2,N
1609880855.2,286047001.2,P
1609880875.1,286047002.0,Y
1609880876.0,286047002.0,P
1609880895.8,286047000.6,N
1609880915.6,286047000.5,N
1609880935.5,286046998.8,N
1609880955.3,286046998.5,N
1609880975.1,286047001.1,N
1609880995.9,286046998.5,N
1609881015.7,286046998.4,N
1609881035.6,286046998.5,N
1609881055.4,286046998.4,N
1609881075.2,286046998.1,N
1609881095.1,286047001.0,N
1609881096.0,286047001.0,N
1609881115.8,286046998.2,N
1609881135.6,286046999.5,N
1609881155.5,286046998.9,N
1609881175.3,286046998.2,N
1609881195.1,286046998.7,N
1609881215.9,286046998.5,N
1609881235.7,286047000.4,N
1609881255.6,286047000.5,N
1609881275.4,286047000.7,N
1609881295.2,286047000.3,N
1609881315.1,286047002.8,N
1609881316.0,286047002.8,N
1609881335.8,286047002.0,N
1609881355.6,286047002.7,N
1609881375.5,286047003.9,N
1609881395.3,286046999.7,N
1609881415.2,286046999.8,N
1609881435.9,286047002.3,N
1609881455.7,286047002.3,N
1609881475.6,286047002.5,N
1609881495.4,286047002.7,N
1609881515.2,286047000.4,N
1609881535.1,286046998.5,N
1609881536.0,286046998.5,N
1609881555.8,286047000.5,N
1609881575.7,286046998.1,N
1609881595.5,286047001.1,N
1609881615.3,286047000.4,N
1609881635.2,286046998.1,N
1609881655.0,286047001.1,N
1609881655.9,286047001.1,N
1609881675.7,286046998.1,N
1609881695.6,286047000.4,N
1609881715.4,286047000.7,N
1609881735.3,286046999.8,N
1609881755.1,286047000.1,N
1609881756.0,286047000.1,N
1609881775.8,286047000.0,N
1609881795.7,286046999.9,N
1609881815.5,286047000.1,N
1609881835.3,286047000.6,N
1609881855.2,286047001.2,N
1609881875.0,286046998.5,N
1609881875.9,286046998.5,N
1609881895.8,286046998.7,N
1609881915.6,286046998.4,N
1609881935.4,286046999.6,N
1609881955.3,286046999.6,N
1609881975.1,286046999.5,N
1609881995.8,286046996.5,N
1609882015.7,286046998.7,N
1609882035.5,286047000.6,N
1609882085.4,286046998.2,E
1609882095.3,286046998.2,N
1609882115.1,286047000.6,P
1609882135.9,286047000.5,N
1609882155.7,286047000.5,N
1609882175.6,286047000.7,N
1609882195.4,286046998.6,N
1609882215.2,286046999.0,N
1609882235.1,286046998.6,N
1609882236.0,286046998.6,N
1609882255.8,286046998.3,N
1609882275.6,286046997.7,N
1609882295.5,286046997.4,N
1609882315.3,286046997.3,N
1609882335.2,286046996.6,N
1609882355.9,286046997.1,N
1609882375.7,286046998.0,N
1609882395.6,286046995.0,Y
1609882415.4,286046997.1,P
1609882435.2,286046996.8,P
1609882455.1,286046999.6,N
1609882456.0,286046999.6,N
1609882475.8,286046998.6,N
1609882495.7,286046999.4,N
1609882515.5,286046998.8,N
1609882535.3,286046998.7,N
1609882555.2,286046999.0,N
1609882575.0,286046999.3,N
1609882575.9,286046999.3,N
1609882595.8,286046998.9,N
1609882615.6,286046998.9,N
1609882635.4,286047001.1,N
1609882655.3,286046998.7,N
1609882675.1,286046999.1,N
1609882695.8,286046999.4,N
1609882715.7,286046997.2,Y
1609882735.5,286046999.6,P
1609882755.4,286047001.1,P
1609882775.2,286046998.5,N
1609882795.0,286046995.0,Y
1609882795.9,286046995.0,P
1609882815.8,286046997.8,N
1609882835.6,286046997.8,N
1609882855.5,286046997.7,N
1609882875.3,286046995.2,Y
1609882895.1,286046996.7,P
1609882915.9,286046999.5,N
1609882935.7,286046996.7,N
1609882955.5,286046999.3,N
1609882975.4,286046999.1,N
1609882995.2,286046997.8,N
1609883015.1,286046995.0,Y
1609883016.0,286046995.0,P
1609883035.8,286046996.6,N
1609883055.6,286046994.9,P
1609883075.5,286046993.3,Y
1609883095.3,286046999.2,P
1609883115.2,286046998.3,N
1609883135.9,286046999.1,N
1609883155.7,286046996.8,N
1609883175.6,286046996.8,N
1609883195.4,286046998.8,N
1609883215.3,286047000.2,N
1609883235.1,286047002.2,N
1609883236.0,286047002.2,N
1609883255.8,286047002.3,N
1609883275.7,286047001.9,N
1609883295.5,286047004.2,N
1609883315.3,286047001.6,N
1609883335.2,286047002.8,N
1609883355.0,286047004.1,N
1609883355.9,286047004.1,N
1609883375.8,286047001.6,N
1609883395.6,286047002.4,N
1609883415.4,286047002.3,N
1609883435.3,286047001.1,N
1609883455.1,286046998.5,N
1609883475.8,286046998.1,N
1609883495.7,286047000.3,N
1609883515.5,286047000.9,N
1609883535.4,286047001.4,N
1609883555.2,286047000.3,N
1609883575.0,286047001.1,N
1609883575.9,286047001.1,N
1609883595.8,286047001.1,N
1609883615.6,286046998.2,N
1609883635.4,286047001.1,N
1609883655.3,286047000.0,N
1609883675.1,286047002.0,N
1609883695.9,286046999.7,N
1609883715.7,286047002.6,N
1609883735.5,286047003.8,N
1609883755.4,286047003.2,N
1609883775.2,286047003.5,N
1609883795.0,286047004.2,N
1609883795.9,286047004.2,N
1609883815.8,286047002.1,N
1609883835.6,286047003.6,N
1609883855.5,286047003.4,N
1609883875.3,286047003.3,N
1609883895.1,286047003.4,N
1609883915.9,286047005.1,N
1609883935.7,286047005.2,N
1609883955.5,286047004.8,N
1609883975.4,286047004.8,N
1609883995.2,286047008.3,Y
